Home > Weather > Arth > Past weeks

Flag for Switzerland Weather for the Past 2 Weeks in Arth, Schwyz, Switzerland

Now
35 °F

Drizzle. Overcast.


Feels Like: 32 °F
Forecast: 25 / 33 °F
Wind: 3 mph from Southeast

Location: Altdorf

Current Time: Feb 13, 2016 at 8:49:54 AM

Latest Report: Feb 13, 2016 at 7:00 AM


Visibility: 1 mi

Pressure: 29.44 "Hg

Humidity: 93%

Dew point: 33 °F

Location of ArthLocation

Historic Weather in Arth — Graph

°F

Arth Temperature Yesterday

Maximum temperature yesterday: 47 °F (at 1:00 PM)
Minimum temperature yesterday: 31 °F (at 9:00 AM)
Average temperature yesterday: 40 °F

High & Low Weather Summary for the Past Weeks

 TemperatureHumidityPressure
High60 °F (Feb 1, 1:00 PM)97% (Jan 31, 3:00 AM)30.53 "Hg (Jan 31, 3:00 AM)
Low30 °F (Feb 11, 12:00 AM)29% (Feb 6, 2:00 PM)29.32 "Hg (Feb 9, 6:00 PM)
Average43 °F73%30.05 "Hg
* Reported Jan 29 7:00 AM — Feb 13 7:00 AM, Arth, Weather by CustomWeather, © 2016

Note: Actual official high and low records may vary slightly from our data, if they occured in-between our weather recording intervals... More about our weather records

Advertising

Arth Weather History for the Previous 24 Hours

 ConditionsComfort  
Time TempWeatherWind HumidityBarometerVisibility
7:00 AM
Sat, Feb 13
35 °FDrizzle. Overcast.3 mph93%29.44 "Hg1 mi
6:00 AM36 °FChilly.2 mph94%29.44 "HgN/A
5:00 AM36 °FChilly.1 mph93%29.44 "HgN/A
4:00 AM36 °FRain. Overcast.3 mph91%29.44 "Hg6 mi
9:00 PM
Fri, Feb 12
43 °FQuite cool.14 mph39%29.38 "HgN/A
8:00 PM42 °FQuite cool.18 mph53%29.38 "HgN/A
7:00 PM40 °FOvercast.28 mph58%29.41 "Hg9 mi
6:00 PM44 °FQuite cool.30 mph41%29.38 "HgN/A
5:00 PM44 °FQuite cool.32 mph38%29.32 "HgN/A
4:00 PM45 °FOvercast.30 mph32%29.32 "Hg9 mi
3:00 PM45 °FCool.28 mph31%29.35 "HgN/A
2:00 PM46 °FCool.26 mph30%29.41 "HgN/A
1:00 PM47 °FOvercast.24 mph32%29.44 "Hg19 mi
12:00 PM44 °FQuite cool.6 mph51%29.50 "HgN/A
11:00 AM39 °FChilly.10 mph68%29.57 "HgN/A
10:00 AM37 °FPassing clouds.3 mph84%29.62 "Hg19 mi
9:00 AM31 °FChilly.1 mph92%29.69 "HgN/A
8:00 AM33 °FChilly.1 mph92%29.72 "HgN/A
Weather by CustomWeather, © 2016

See weather overviewHow to use our weather pages